| time (UTC) | temp F | wind direction | speed knots | gust knots | rain 1hr in | rain 24hr in | rain mn in | humidity % | barometer mb |
| 20260507000015 | 54 | 335 | 7.8 | 0.0 | 0.00 | 0.00 | 0.00 | 24 | 1003.4 |
| 20260506234510 | 55 | 296 | 7.8 | 0.0 | 0.00 | 0.00 | 0.00 | 24 | 1003.5 |
| 20260506233008 | 55 | 292 | 8.7 | 0.0 | 0.00 | 0.00 | 0.00 | 25 | 1003.7 |
| 20260506231506 | 55 | 255 | 7.0 | 0.0 | 0.00 | 0.00 | 0.00 | 25 | 1003.7 |
| 20260506230005 | 55 | 266 | 8.7 | 0.0 | 0.00 | 0.00 | 0.00 | 23 | 1003.8 |
| 20260506224504 | 55 | 244 | 6.1 | 0.0 | 0.00 | 0.00 | 0.00 | 24 | 1003.9 |
| 20260506223002 | 55 | 233 | 10.4 | 0.0 | 0.00 | 0.00 | 0.00 | 25 | 1004.2 |
| 20260506221600 | 55 | 216 | 9.6 | 0.0 | 0.00 | 0.00 | 0.00 | 23 | 1004.3 |
| 20260506220057 | 55 | 222 | 7.0 | 0.0 | 0.00 | 0.00 | 0.00 | 23 | 1004.5 |
| 20260506214604 | 55 | 219 | 7.8 | 0.0 | 0.00 | 0.00 | 0.00 | 24 | 1004.7 |
| 20260506213053 | 54 | 292 | 6.1 | 0.0 | 0.00 | 0.00 | 0.00 | 24 | 1004.9 |
| 20260506211550 | 54 | 262 | 8.7 | 0.0 | 0.00 | 0.00 | 0.00 | 24 | 1005.2 |
| 20260506210048 | 54 | 230 | 7.8 | 0.0 | 0.00 | 0.00 | 0.00 | 24 | 1005.5 |
| 20260506204551 | 53 | 260 | 7.0 | 0.0 | 0.00 | 0.00 | 0.00 | 26 | 1005.7 |
| 20260506203046 | 53 | 250 | 7.8 | 0.0 | 0.00 | 0.00 | 0.00 | 26 | 1005.7 |
| 20260506201543 | 52 | 310 | 6.1 | 0.0 | 0.00 | 0.00 | 0.00 | 27 | 1006.0 |
| 20260506200043 | 52 | 253 | 7.8 | 0.0 | 0.00 | 0.00 | 0.00 | 26 | 1006.4 |
| 20260506194542 | 51 | 281 | 6.1 | 0.0 | 0.00 | 0.00 | 0.00 | 26 | 1006.4 |
| 20260506193039 | 51 | 248 | 9.6 | 0.0 | 0.00 | 0.00 | 0.00 | 26 | 1006.8 |
| 20260506191535 | 51 | 250 | 7.0 | 0.0 | 0.00 | 0.00 | 0.00 | 26 | 1007.1 |
| 20260506190032 | 50 | 271 | 9.6 | 0.0 | 0.00 | 0.00 | 0.00 | 27 | 1007.5 |
| 20260506184531 | 50 | 202 | 6.1 | 0.0 | 0.00 | 0.00 | 0.00 | 28 | 1007.6 |
| 20260506183028 | 50 | 281 | 7.8 | 0.0 | 0.00 | 0.00 | 0.00 | 27 | 1008.1 |
| 20260506181525 | 49 | 301 | 7.0 | 0.0 | 0.00 | 0.00 | 0.00 | 27 | 1008.3 |
| 20260506180023 | 49 | 252 | 7.8 | 0.0 | 0.00 | 0.00 | 0.00 | 26 | 1008.7 |
| 20260506174521 | 48 | 287 | 4.3 | 0.0 | 0.00 | 0.00 | 0.00 | 28 | 1008.8 |
| 20260506173018 | 48 | 246 | 7.0 | 0.0 | 0.00 | 0.00 | 0.00 | 27 | 1009.1 |
| 20260506171520 | 48 | 157 | 7.0 | 0.0 | 0.00 | 0.00 | 0.00 | 28 | 1009.2 |
| 20260506170012 | 47 | 231 | 7.0 | 0.0 | 0.00 | 0.00 | 0.00 | 29 | 1009.5 |
| 20260506164509 | 46 | 325 | 7.0 | 0.0 | 0.00 | 0.00 | 0.00 | 29 | 1009.8 |
| 20260506163009 | 46 | 243 | 6.1 | 0.0 | 0.00 | 0.00 | 0.00 | 29 | 1009.9 |
| 20260506161502 | 45 | 295 | 6.1 | 0.0 | 0.00 | 0.00 | 0.00 | 31 | 1010.2 |
| 20260506160002 | 44 | 171 | 6.1 | 0.0 | 0.00 | 0.00 | 0.00 | 32 | 1010.3 |
| 20260506154558 | 44 | 243 | 4.3 | 0.0 | 0.00 | 0.00 | 0.00 | 34 | 1010.5 |
| 20260506153057 | 42 | 203 | 5.2 | 0.0 | 0.00 | 0.00 | 0.00 | 36 | 1010.5 |
| 20260506151552 | 41 | 247 | 4.3 | 0.0 | 0.00 | 0.00 | 0.00 | 39 | 1010.7 |
| 20260506150056 | 40 | 221 | 4.3 | 0.0 | 0.00 | 0.00 | 0.00 | 41 | 1010.9 |
| 20260506144600 | 39 | 211 | 5.2 | 0.0 | 0.00 | 0.00 | 0.00 | 43 | 1010.9 |
| 20260506143041 | 37 | 227 | 3.5 | 0.0 | 0.00 | 0.00 | 0.00 | 45 | 1011.1 |
| 20260506141537 | 36 | 219 | 3.5 | 0.0 | 0.00 | 0.00 | 0.00 | 47 | 1011.2 |
| 20260506140033 | 34 | 206 | 4.3 | 0.0 | 0.00 | 0.00 | 0.00 | 51 | 1011.3 |
| 20260506134529 | 32 | 200 | 5.2 | 0.0 | 0.00 | 0.00 | 0.00 | 53 | 1011.3 |
| 20260506133025 | 31 | 218 | 6.1 | 0.0 | 0.00 | 0.00 | 0.00 | 56 | 1011.3 |
| 20260506131526 | 29 | 192 | 6.1 | 0.0 | 0.00 | 0.00 | 0.00 | 59 | 1011.4 |
| 20260506130019 | 28 | 201 | 5.2 | 0.0 | 0.00 | 0.00 | 0.00 | 64 | 1011.3 |
| 20260506124513 | 25 | 171 | 4.3 | 0.0 | 0.00 | 0.00 | 0.00 | 69 | 1011.2 |
| 20260506123013 | 24 | 170 | 4.3 | 0.0 | 0.00 | 0.00 | 0.00 | 70 | 1011.1 |
| 20260506121506 | 22 | 173 | 3.5 | 0.0 | 0.00 | 0.00 | 0.00 | 72 | 1011.1 |
| 20260506120013 | 21 | 178 | 3.5 | 0.0 | 0.00 | 0.00 | 0.00 | 73 | 1011.0 |
| 20260506114505 | 21 | 168 | 3.5 | 0.0 | 0.00 | 0.00 | 0.00 | 71 | 1010.9 |
| 20260506113003 | 21 | 156 | 1.7 | 0.0 | 0.00 | 0.00 | 0.00 | 70 | 1010.8 |
| 20260506111504 | 21 | 156 | 2.6 | 0.0 | 0.00 | 0.00 | 0.00 | 70 | 1010.8 |
| 20260506110001 | 21 | 157 | 1.7 | 0.0 | 0.00 | 0.00 | 0.00 | 69 | 1010.8 |
| 20260506104601 | 22 | 161 | 4.3 | 0.0 | 0.00 | 0.00 | 0.00 | 69 | 1010.7 |
| 20260506103059 | 23 | 158 | 3.5 | 0.0 | 0.00 | 0.00 | 0.00 | 66 | 1010.7 |
| 20260506101557 | 24 | 159 | 4.3 | 0.0 | 0.00 | 0.00 | 0.00 | 65 | 1010.7 |
| 20260506100104 | 23 | 159 | 3.5 | 0.0 | 0.00 | 0.00 | 0.00 | 67 | 1010.6 |
| 20260506094612 | 24 | 168 | 3.5 | 0.0 | 0.00 | 0.00 | 0.00 | 65 | 1010.6 |
| 20260506093058 | 24 | 172 | 3.5 | 0.0 | 0.00 | 0.00 | 0.00 | 66 | 1010.6 |
| 20260506091556 | 23 | 171 | 2.6 | 0.0 | 0.00 | 0.00 | 0.00 | 68 | 1010.6 |
| 20260506090055 | 22 | 171 | 3.5 | 0.0 | 0.00 | 0.00 | 0.00 | 68 | 1010.7 |
| 20260506084557 | 20 | 166 | 2.6 | 0.0 | 0.00 | 0.00 | 0.00 | 70 | 1010.6 |
| 20260506083058 | 19 | 171 | 2.6 | 0.0 | 0.00 | 0.00 | 0.00 | 72 | 1010.5 |
| 20260506081549 | 20 | 180 | 2.6 | 0.0 | 0.00 | 0.00 | 0.00 | 68 | 1010.5 |
| 20260506080105 | 22 | 186 | 1.7 | 0.0 | 0.00 | 0.00 | 0.00 | 65 | 1010.5 |
| 20260506073057 | 21 | 187 | 1.7 | 0.0 | 0.00 | 0.00 | 0.00 | 68 | 1010.6 |
| 20260506071545 | 21 | 187 | 1.7 | 0.0 | 0.00 | 0.00 | 0.00 | 69 | 1010.4 |
| 20260506061533 | 23 | 206 | 1.7 | 0.0 | 0.00 | 0.00 | 0.00 | 67 | 1010.2 |
| 20260506044527 | 27 | 249 | 1.7 | 0.0 | 0.00 | 0.00 | 0.00 | 61 | 1009.9 |
| 20260506043014 | 30 | 270 | 1.7 | 0.0 | 0.00 | 0.00 | 0.00 | 57 | 1009.9 |
| 20260506041508 | 35 | 311 | 0.0 | 0.0 | 0.00 | 0.00 | 0.00 | 50 | 1009.9 |
| 20260506040009 | 36 | 328 | 1.7 | 0.0 | 0.00 | 0.00 | 0.00 | 50 | 1009.7 |
| 20260506034505 | 35 | 310 | 0.9 | 0.0 | 0.00 | 0.00 | 0.00 | 53 | 1009.7 |
| 20260506033004 | 35 | 265 | 0.9 | 0.0 | 0.00 | 0.00 | 0.00 | 55 | 1009.6 |
| 20260506031504 | 36 | 265 | 1.7 | 0.0 | 0.00 | 0.00 | 0.00 | 56 | 1009.4 |
| 20260506030104 | 38 | 307 | 0.9 | 0.0 | 0.00 | 0.00 | 0.00 | 52 | 1009.3 |
| 20260506024615 | 39 | 309 | 0.9 | 0.0 | 0.00 | 0.00 | 0.00 | 48 | 1009.1 |
| 20260506023104 | 40 | 309 | 0.0 | 0.0 | 0.00 | 0.00 | 0.00 | 45 | 1009.0 |
| 20260506021600 | 41 | 309 | 0.9 | 0.0 | 0.00 | 0.00 | 0.00 | 43 | 1008.9 |
| 20260506020056 | 42 | 314 | 2.6 | 0.0 | 0.00 | 0.00 | 0.00 | 42 | 1008.7 |
| 20260506014556 | 42 | 296 | 3.5 | 0.0 | 0.00 | 0.00 | 0.00 | 41 | 1008.8 |
| 20260506013101 | 43 | 311 | 4.3 | 0.0 | 0.00 | 0.00 | 0.00 | 40 | 1008.7 |
| 20260506011621 | 43 | 330 | 6.1 | 0.0 | 0.00 | 0.00 | 0.00 | 39 | 1008.6 |
| 20260506010106 | 44 | 336 | 8.7 | 0.0 | 0.00 | 0.00 | 0.00 | 37 | 1008.6 |
| 20260506004555 | 45 | 313 | 8.7 | 0.0 | 0.00 | 0.00 | 0.00 | 37 | 1008.5 |
| 20260506003056 | 45 | 321 | 10.4 | 0.0 | 0.00 | 0.00 | 0.00 | 36 | 1008.4 |
| 20260506001556 | 44 | 317 | 8.7 | 0.0 | 0.00 | 0.00 | 0.00 | 37 | 1008.5 |